This is the latest recevied weather packets stored in our database for station/object DL1AIE-13. If no packets are shown the sender has not sent any weather packets the latest 10 day(s).
| Time | Temp. | Humidity | Pressure | Rain* | Wind** | Luminosity | Snow |
|---|---|---|---|---|---|---|---|
| 1777927041 | 15.56° C | 81% | 1013.6 hPa | 0 mm | - | - | - |
| 1777926438 | 16.11° C | 80% | 1013.6 hPa | 0 mm | - | - | - |
| 1777925854 | 16.11° C | 77% | 1013.6 hPa | 0 mm | - | - | - |
| 1777925250 | 16.11° C | 77% | 1013.4 hPa | 0 mm | - | - | - |
| 1777924647 | 16.11° C | 78% | 1013.3 hPa | 0 mm | - | - | - |
| 1777924043 | 16.11° C | 77% | 1013 hPa | 0 mm | - | - | - |
| 1777923439 | 16.11° C | 76% | 1012.7 hPa | 0 mm | - | - | - |
| 1777922855 | 16.67° C | 75% | 1012.8 hPa | 0 mm | - | - | - |
| 1777922252 | 16.67° C | 73% | 1012.6 hPa | 0 mm | - | - | - |
| 1777921652 | 16.67° C | 74% | 1012.6 hPa | 0 mm | - | - | - |
| 1777921045 | 16.67° C | 75% | 1012.6 hPa | 0 mm | - | - | - |
| 1777920446 | 17.22° C | 72% | 1012.8 hPa | 0 mm | - | - | - |
| 1777919841 | 17.22° C | 72% | 1012.8 hPa | 0 mm | - | - | - |
| 1777919254 | 17.22° C | 70% | 1012.8 hPa | 0 mm | - | - | - |
| 1777918650 | 17.78° C | 71% | 1012.7 hPa | 0 mm | - | - | - |
| 1777918046 | 17.78° C | 70% | 1012.5 hPa | 0 mm | - | - | - |
| 1777917443 | 17.78° C | 70% | 1012.4 hPa | 0 mm | - | - | - |
| 1777916839 | 17.78° C | 71% | 1012.5 hPa | 0 mm | - | - | - |
| 1777916256 | 18.33° C | 69% | 1012.6 hPa | 0 mm | - | - | - |
| 1777915655 | 18.33° C | 68% | 1012.7 hPa | 0 mm | - | - | - |
| 1777915049 | 18.33° C | 69% | 1012.6 hPa | 0 mm | - | - | - |
| 1777914445 | 18.89° C | 67% | 1012.6 hPa | 0 mm | - | - | - |
| 1777913841 | 18.89° C | 66% | 1012.6 hPa | 0 mm | - | - | - |
| 1777913238 | 18.89° C | 66% | 1012.8 hPa | 0 mm | - | - | - |
| 1777912655 | 20.56° C | 60% | 1012.8 hPa | 0 mm | - | - | - |
* Rain latest hour (hover to see other rain measurements)
** Current wind speed in m/s (hover to see current wind gust speed)